| time (UTC) | temp C | wind direction | speed KPH | gust KPH | rain 1hr cm | rain 24hr cm | rain mn cm | humidity % | barometer mb |
| 20260504202529 | 29 | 327 | 3.2 | 14.5 | 0.00 | 0.00 | 0.00 | 30 | 1020.5 |
| 20260504200530 | 29 | 0 | 1.6 | 9.7 | 0.00 | 0.00 | 0.00 | 29 | 1020.6 |
| 20260504200038 | 29 | 45 | 6.4 | 9.7 | 0.00 | 0.00 | 0.00 | 29 | 1020.9 |
| 20260504195034 | 29 | 87 | 4.8 | 17.7 | 0.00 | 0.00 | 0.00 | 30 | 1020.9 |
| 20260504194529 | 29 | 199 | 6.4 | 9.7 | 0.00 | 0.00 | 0.00 | 30 | 1020.9 |
| 20260504194031 | 29 | 283 | 1.6 | 11.3 | 0.00 | 0.00 | 0.00 | 30 | 1020.9 |
| 20260504193529 | 29 | 165 | 6.4 | 11.3 | 0.00 | 0.00 | 0.00 | 31 | 1021.0 |
| 20260504193031 | 28 | 175 | 1.6 | 9.7 | 0.00 | 0.00 | 0.00 | 31 | 1021.0 |
| 20260504192530 | 28 | 37 | 6.4 | 9.7 | 0.00 | 0.00 | 0.00 | 29 | 1021.1 |
| 20260504192030 | 28 | 185 | 3.2 | 9.7 | 0.00 | 0.00 | 0.00 | 28 | 1021.3 |
| 20260504191528 | 28 | 133 | 4.8 | 9.7 | 0.00 | 0.00 | 0.00 | 30 | 1021.4 |
| 20260504191030 | 28 | 228 | 3.2 | 14.5 | 0.00 | 0.00 | 0.00 | 29 | 1021.5 |
| 20260504190528 | 28 | 58 | 6.4 | 14.5 | 0.00 | 0.00 | 0.00 | 29 | 1021.6 |
| 20260504190031 | 28 | 21 | 6.4 | 11.3 | 0.00 | 0.00 | 0.00 | 31 | 1021.6 |
| 20260504185528 | 28 | 61 | 4.8 | 9.7 | 0.00 | 0.00 | 0.00 | 31 | 1021.7 |
| 20260504184528 | 29 | 107 | 6.4 | 14.5 | 0.00 | 0.00 | 0.00 | 32 | 1021.8 |
| 20260504184031 | 28 | 162 | 0.0 | 11.3 | 0.00 | 0.00 | 0.00 | 32 | 1021.7 |
| 20260504183528 | 28 | 183 | 4.8 | 11.3 | 0.00 | 0.00 | 0.00 | 32 | 1021.8 |
| 20260504182528 | 28 | 7 | 1.6 | 6.4 | 0.00 | 0.00 | 0.00 | 33 | 1022.0 |
| 20260504182029 | 28 | 3 | 3.2 | 6.4 | 0.00 | 0.00 | 0.00 | 31 | 1022.0 |
| 20260504181527 | -17 | 0.0 | 0.0 | 0.00 | 0.00 | 0.00 | 1022.1 | ||
| 20260504180519 | -17 | 0.0 | 0.0 | 0.00 | 0.00 | 0.00 | 1022.2 | ||
| 20260504180032 | -17 | 0.0 | 0.0 | 0.00 | 0.00 | 0.00 | 1022.3 | ||
| 20260504175524 | 27 | 38 | 6.4 | 11.3 | 0.00 | 0.00 | 0.00 | 32 | 1022.3 |
| 20260504175029 | 27 | 38 | 6.4 | 11.3 | 0.00 | 0.00 | 0.00 | 32 | 1022.5 |
| 20260504174522 | 27 | 80 | 3.2 | 8.0 | 0.00 | 0.00 | 0.00 | 32 | 1022.7 |
| 20260504174029 | 27 | 169 | 3.2 | 9.7 | 0.00 | 0.00 | 0.00 | 32 | 1022.8 |
| 20260504173522 | 27 | 120 | 4.8 | 9.7 | 0.00 | 0.00 | 0.00 | 33 | 1022.9 |
| 20260504173028 | 27 | 4 | 4.8 | 9.7 | 0.00 | 0.00 | 0.00 | 35 | 1022.9 |
| 20260504172522 | 27 | 309 | 4.8 | 8.0 | 0.00 | 0.00 | 0.00 | 34 | 1022.8 |
| 20260504172028 | 26 | 330 | 3.2 | 8.0 | 0.00 | 0.00 | 0.00 | 33 | 1023.0 |
| 20260504171523 | 26 | 48 | 4.8 | 16.1 | 0.00 | 0.00 | 0.00 | 35 | 1023.1 |
| 20260504171029 | 27 | 0 | 9.7 | 16.1 | 0.00 | 0.00 | 0.00 | 35 | 1023.0 |
| 20260504170523 | 27 | 45 | 3.2 | 14.5 | 0.00 | 0.00 | 0.00 | 35 | 1023.1 |
| 20260504151025 | 24 | 10 | 6.4 | 17.7 | 0.00 | 0.00 | 0.00 | 42 | 1024.1 |
| 20260504150520 | 24 | 305 | 11.3 | 17.7 | 0.00 | 0.00 | 0.00 | 42 | 1024.1 |
| 20260504141017 | 23 | 87 | 8.0 | 9.7 | 0.00 | 0.00 | 0.00 | 47 | 1024.1 |
| 20260504140519 | 23 | 76 | 4.8 | 9.7 | 0.00 | 0.00 | 0.00 | 48 | 1024.2 |
| 20260504130515 | 18 | 23 | 3.2 | 8.0 | 0.00 | 0.00 | 0.00 | 77 | 1024.2 |
| 20260504110502 | -17 | 0.0 | 0.0 | 0.00 | 0.00 | 0.00 | 1023.6 | ||
| 20260504081941 | 11 | 79 | 0.0 | 0.0 | 0.00 | 0.00 | 0.00 | 86 | 1023.4 |
| 20260504080941 | 11 | 79 | 0.0 | 0.0 | 0.00 | 0.00 | 0.00 | 87 | 1023.3 |
| 20260504080440 | 12 | 79 | 0.0 | 0.0 | 0.00 | 0.00 | 0.00 | 85 | 1023.3 |
| 20260504050435 | 15 | 79 | 0.0 | 1.6 | 0.00 | 0.00 | 0.00 | 79 | 1024.6 |
| 20260504045936 | 15 | 79 | 0.0 | 0.0 | 0.00 | 0.00 | 0.00 | 79 | 1024.6 |
| 20260504045435 | 15 | 79 | 0.0 | 0.0 | 0.00 | 0.00 | 0.00 | 79 | 1024.6 |
| 20260504044435 | 15 | 79 | 0.0 | 0.0 | 0.00 | 0.00 | 0.00 | 76 | 1024.6 |
| 20260504042934 | 15 | 79 | 0.0 | 0.0 | 0.00 | 0.00 | 0.00 | 76 | 1024.7 |
| 20260504042435 | 15 | 79 | 0.0 | 0.0 | 0.00 | 0.00 | 0.00 | 75 | 1024.8 |
| 20260504041936 | 15 | 79 | 0.0 | 0.0 | 0.00 | 0.00 | 0.00 | 75 | 1024.8 |
| 20260504041435 | 15 | 79 | 0.0 | 0.0 | 0.00 | 0.00 | 0.00 | 75 | 1024.8 |
| 20260504040435 | 15 | 79 | 0.0 | 0.0 | 0.00 | 0.00 | 0.00 | 75 | 1024.8 |
| 20260504035935 | 16 | 79 | 0.0 | 0.0 | 0.00 | 0.00 | 0.00 | 74 | 1024.7 |
| 20260504035435 | 16 | 79 | 0.0 | 0.0 | 0.00 | 0.00 | 0.00 | 74 | 1024.8 |
| 20260504034934 | 16 | 80 | 0.0 | 0.0 | 0.00 | 0.00 | 0.00 | 74 | 1024.8 |
| 20260504034434 | 16 | 79 | 0.0 | 3.2 | 0.00 | 0.00 | 0.00 | 73 | 1024.8 |
| 20260504033933 | 16 | 79 | 0.0 | 3.2 | 0.00 | 0.00 | 0.00 | 72 | 1024.9 |
| 20260504033435 | 16 | 79 | 0.0 | 3.2 | 0.00 | 0.00 | 0.00 | 72 | 1024.8 |
| 20260504032935 | 16 | 79 | 0.0 | 3.2 | 0.00 | 0.00 | 0.00 | 72 | 1024.8 |
| 20260504032434 | 16 | 79 | 0.0 | 0.0 | 0.00 | 0.00 | 0.00 | 71 | 1024.7 |
| 20260504031932 | 16 | 79 | 0.0 | 0.0 | 0.00 | 0.00 | 0.00 | 71 | 1024.7 |
| 20260504031433 | 16 | 79 | 0.0 | 1.6 | 0.00 | 0.00 | 0.00 | 71 | 1024.8 |
| 20260504030933 | 16 | 79 | 0.0 | 3.2 | 0.00 | 0.00 | 0.00 | 71 | 1024.7 |
| 20260504025933 | 17 | 79 | 0.0 | 1.6 | 0.00 | 0.00 | 0.00 | 69 | 1024.5 |
| 20260504025434 | 17 | 79 | 0.0 | 3.2 | 0.00 | 0.00 | 0.00 | 69 | 1024.5 |
| 20260504023933 | 18 | 79 | 0.0 | 3.2 | 0.00 | 0.00 | 0.00 | 66 | 1024.4 |
| 20260504022931 | 18 | 79 | 0.0 | 1.6 | 0.00 | 0.00 | 0.00 | 65 | 1024.3 |
| 20260504021932 | 18 | 79 | 0.0 | 3.2 | 0.00 | 0.00 | 0.00 | 64 | 1024.1 |
| 20260504021434 | 19 | 79 | 0.0 | 1.6 | 0.00 | 0.00 | 0.00 | 63 | 1024.2 |
| 20260504020932 | 19 | 79 | 0.0 | 0.0 | 0.00 | 0.00 | 0.00 | 63 | 1024.0 |
| 20260504020432 | 19 | 79 | 0.0 | 0.0 | 0.00 | 0.00 | 0.00 | 61 | 1023.9 |
| 20260504015933 | 19 | 79 | 0.0 | 3.2 | 0.00 | 0.00 | 0.00 | 61 | 1023.8 |
| 20260504015432 | 20 | 79 | 0.0 | 3.2 | 0.00 | 0.00 | 0.00 | 60 | 1023.8 |
| 20260504014932 | 20 | 79 | 0.0 | 3.2 | 0.00 | 0.00 | 0.00 | 60 | 1023.8 |
| 20260504013932 | 20 | 79 | 0.0 | 3.2 | 0.00 | 0.00 | 0.00 | 59 | 1023.6 |
| 20260504013431 | 20 | 79 | 0.0 | 3.2 | 0.00 | 0.00 | 0.00 | 59 | 1023.5 |
| 20260504012930 | 20 | 79 | 0.0 | 1.6 | 0.00 | 0.00 | 0.00 | 58 | 1023.4 |
| 20260504012430 | 20 | 79 | 0.0 | 1.6 | 0.00 | 0.00 | 0.00 | 57 | 1023.3 |
| 20260504011931 | 20 | 79 | 0.0 | 3.2 | 0.00 | 0.00 | 0.00 | 57 | 1023.2 |
| 20260504011430 | 20 | 79 | 1.6 | 3.2 | 0.00 | 0.00 | 0.00 | 57 | 1023.2 |
| 20260504010931 | 20 | 17 | 1.6 | 4.8 | 0.00 | 0.00 | 0.00 | 57 | 1023.0 |
| 20260504010430 | 20 | 4 | 1.6 | 4.8 | 0.00 | 0.00 | 0.00 | 55 | 1022.9 |
| 20260504005430 | 21 | 30 | 1.6 | 6.4 | 0.00 | 0.00 | 0.00 | 54 | 1022.8 |
| 20260504004430 | 21 | 86 | 0.0 | 3.2 | 0.00 | 0.00 | 0.00 | 51 | 1022.7 |
| 20260504003431 | 21 | 87 | 0.0 | 3.2 | 0.00 | 0.00 | 0.00 | 48 | 1022.7 |
| 20260504002931 | 21 | 87 | 1.6 | 3.2 | 0.00 | 0.00 | 0.00 | 48 | 1022.4 |
| 20260504001430 | 22 | 87 | 0.0 | 1.6 | 0.00 | 0.00 | 0.00 | 47 | 1022.2 |
| 20260504000930 | 23 | 87 | 0.0 | 1.6 | 0.00 | 0.00 | 0.00 | 47 | 1022.2 |
| 20260504000431 | 23 | 87 | 0.0 | 1.6 | 0.00 | 0.00 | 0.00 | 46 | 1022.2 |
| 20260503235928 | 23 | 87 | 0.0 | 6.4 | 0.00 | 0.00 | 0.00 | 46 | 1022.0 |
| 20260503235429 | 23 | 316 | 1.6 | 6.4 | 0.00 | 0.00 | 0.00 | 44 | 1022.0 |
| 20260503234425 | 23 | 338 | 1.6 | 6.4 | 0.00 | 0.00 | 0.00 | 42 | 1022.0 |
| 20260503233928 | 23 | 296 | 3.2 | 6.4 | 0.00 | 0.00 | 0.00 | 42 | 1022.0 |
| 20260503233429 | 23 | 350 | 3.2 | 6.4 | 0.00 | 0.00 | 0.00 | 41 | 1021.9 |
| 20260503232928 | 23 | 345 | 1.6 | 6.4 | 0.00 | 0.00 | 0.00 | 41 | 1022.0 |
| 20260503232429 | 24 | 320 | 4.8 | 8.0 | 0.00 | 0.00 | 0.00 | 40 | 1022.1 |
| 20260503231927 | 24 | 324 | 4.8 | 8.0 | 0.00 | 0.00 | 0.00 | 40 | 1022.1 |
| 20260503231428 | 24 | 336 | 4.8 | 11.3 | 0.00 | 0.00 | 0.00 | 40 | 1022.1 |
| 20260503230927 | 24 | 313 | 8.0 | 11.3 | 0.00 | 0.00 | 0.00 | 39 | 1022.1 |
| 20260503225927 | 24 | 316 | 4.8 | 9.7 | 0.00 | 0.00 | 0.00 | 39 | 1022.1 |
| 20260503223927 | 25 | 317 | 4.8 | 11.3 | 0.00 | 0.00 | 0.00 | 37 | 1021.9 |
| 20260503223426 | 25 | 3 | 3.2 | 11.3 | 0.00 | 0.00 | 0.00 | 39 | 1021.9 |
| 20260503222928 | 25 | 345 | 3.2 | 9.7 | 0.00 | 0.00 | 0.00 | 39 | 1021.8 |
| 20260503222428 | 25 | 320 | 6.4 | 9.7 | 0.00 | 0.00 | 0.00 | 38 | 1021.9 |
| 20260503221426 | 25 | 307 | 4.8 | 9.7 | 0.00 | 0.00 | 0.00 | 37 | 1021.9 |
| 20260503220927 | 25 | 336 | 3.2 | 9.7 | 0.00 | 0.00 | 0.00 | 37 | 1022.0 |
| 20260503220427 | 25 | 317 | 4.8 | 8.0 | 0.00 | 0.00 | 0.00 | 36 | 1022.0 |
| 20260503215927 | 25 | 212 | 3.2 | 4.8 | 0.00 | 0.00 | 0.00 | 35 | 1021.9 |
| 20260503215427 | 25 | 180 | 1.6 | 4.8 | 0.00 | 0.00 | 0.00 | 35 | 1022.0 |
| 20260503214927 | 25 | 202 | 1.6 | 8.0 | 0.00 | 0.00 | 0.00 | 34 | 1022.1 |
| 20260503214428 | 25 | 0 | 3.2 | 11.3 | 0.00 | 0.00 | 0.00 | 35 | 1022.1 |
| 20260503213926 | 25 | 321 | 6.4 | 11.3 | 0.00 | 0.00 | 0.00 | 36 | 1022.1 |
| 20260503213426 | 25 | 343 | 4.8 | 8.0 | 0.00 | 0.00 | 0.00 | 35 | 1022.0 |
| 20260503212925 | 25 | 37 | 3.2 | 9.7 | 0.00 | 0.00 | 0.00 | 35 | 1022.0 |
| 20260503212424 | 25 | 344 | 3.2 | 11.3 | 0.00 | 0.00 | 0.00 | 36 | 1022.1 |
| 20260503211926 | 26 | 341 | 3.2 | 11.3 | 0.00 | 0.00 | 0.00 | 36 | 1022.1 |
| 20260503210425 | 26 | 48 | 3.2 | 16.1 | 0.00 | 0.00 | 0.00 | 36 | 1022.1 |
| 20260503205925 | 25 | 306 | 3.2 | 16.1 | 0.00 | 0.00 | 0.00 | 36 | 1022.0 |
| 20260503205424 | 25 | 330 | 6.4 | 14.5 | 0.00 | 0.00 | 0.00 | 36 | 1022.1 |
| 20260503204925 | 26 | 16 | 8.0 | 14.5 | 0.00 | 0.00 | 0.00 | 36 | 1022.1 |
| 20260503204426 | 26 | 303 | 9.7 | 14.5 | 0.00 | 0.00 | 0.00 | 38 | 1022.2 |
| 20260503203924 | 26 | 321 | 4.8 | 11.3 | 0.00 | 0.00 | 0.00 | 37 | 1022.2 |
| 20260503203425 | 26 | 1 | 1.6 | 11.3 | 0.00 | 0.00 | 0.00 | 41 | 1022.3 |
| 20260503202925 | 25 | 288 | 1.6 | 16.1 | 0.00 | 0.00 | 0.00 | 40 | 1022.3 |